TimeCDT,TemperatureF,Dew PointF,Humidity,Sea Level PressureIn,VisibilityMPH,Wind Direction,Wind SpeedMPH,Gust SpeedMPH,PrecipitationIn,Events,Conditions,WindDirDegrees,DateUTC
12:15 AM,86.5,60.6,42,29.87,10.0,NE,3.5,-,N/A,,Clear,40,2013-07-01 05:15:00
12:35 AM,85.1,60.8,44,29.88,10.0,Calm,Calm,-,N/A,,Clear,0,2013-07-01 05:35:00
12:55 AM,84.4,60.4,44,29.88,10.0,Calm,Calm,-,N/A,,Clear,0,2013-07-01 05:55:00
1:15 AM,82.9,60.8,47,29.88,10.0,Calm,Calm,-,N/A,,Clear,0,2013-07-01 06:15:00
1:35 AM,82.8,59.9,46,29.88,10.0,NE,3.5,-,N/A,,Clear,40,2013-07-01 06:35:00
1:55 AM,82.2,59.9,47,29.88,10.0,Calm,Calm,-,N/A,,Clear,0,2013-07-01 06:55:00
2:15 AM,81.7,60.1,48,29.88,10.0,Calm,Calm,-,N/A,,Clear,0,2013-07-01 07:15:00
2:35 AM,81.0,60.1,49,29.88,10.0,Calm,Calm,-,N/A,,Clear,0,2013-07-01 07:35:00
2:55 AM,79.7,60.4,52,29.88,10.0,Calm,Calm,-,N/A,,Clear,0,2013-07-01 07:55:00
3:15 AM,78.8,60.1,53,29.89,10.0,Calm,Calm,-,N/A,,Clear,0,2013-07-01 08:15:00
3:35 AM,78.8,60.8,54,29.89,10.0,Calm,Calm,-,N/A,,Clear,0,2013-07-01 08:35:00
3:55 AM,77.9,60.4,55,29.89,10.0,Calm,Calm,-,N/A,,Clear,0,2013-07-01 08:55:00
4:15 AM,77.7,60.4,55,29.89,10.0,NNE,3.5,-,N/A,,Clear,20,2013-07-01 09:15:00
4:35 AM,77.0,60.6,57,29.90,10.0,Calm,Calm,-,N/A,,Clear,0,2013-07-01 09:35:00
4:55 AM,77.0,60.4,56,29.91,10.0,Calm,Calm,-,N/A,,Clear,0,2013-07-01 09:55:00
5:15 AM,76.6,60.4,57,29.91,10.0,Calm,Calm,-,N/A,,Clear,0,2013-07-01 10:15:00
5:35 AM,75.7,60.8,60,29.91,10.0,Calm,Calm,-,N/A,,Clear,0,2013-07-01 10:35:00
5:55 AM,73.6,61.3,65,29.91,10.0,Calm,Calm,-,N/A,,Clear,0,2013-07-01 10:55:00
6:15 AM,72.5,61.5,68,29.92,10.0,NNW,4.6,-,N/A,,Clear,330,2013-07-01 11:15:00
6:35 AM,72.5,61.5,68,29.92,10.0,North,3.5,-,N/A,,Clear,350,2013-07-01 11:35:00
6:55 AM,71.8,62.1,71,29.93,10.0,NNW,3.5,-,N/A,,Clear,330,2013-07-01 11:55:00
7:15 AM,73.6,62.4,68,29.94,10.0,NNW,6.9,-,N/A,,Clear,340,2013-07-01 12:15:00
7:35 AM,75.4,62.1,63,29.95,10.0,North,4.6,-,N/A,,Clear,350,2013-07-01 12:35:00
7:55 AM,77.2,62.1,59,29.95,10.0,North,4.6,-,N/A,,Clear,350,2013-07-01 12:55:00
8:15 AM,79.3,61.9,55,29.96,10.0,North,5.8,-,N/A,,Clear,360,2013-07-01 13:15:00
8:35 AM,81.3,61.2,50,29.95,10.0,North,5.8,-,N/A,,Clear,360,2013-07-01 13:35:00
8:55 AM,81.5,61.5,51,29.96,10.0,NNE,8.1,-,N/A,,Clear,30,2013-07-01 13:55:00
9:15 AM,82.9,61.5,48,29.96,10.0,NNE,5.8,-,N/A,,Clear,30,2013-07-01 14:15:00
9:35 AM,84.0,61.5,47,29.96,10.0,NE,5.8,-,N/A,,Clear,40,2013-07-01 14:35:00
9:55 AM,85.1,61.2,44,29.96,10.0,NNE,8.1,-,N/A,,Clear,30,2013-07-01 14:55:00
10:15 AM,86.9,60.8,41,29.96,10.0,NNE,6.9,-,N/A,,Clear,30,2013-07-01 15:15:00
10:35 AM,86.9,59.9,40,29.96,10.0,North,5.8,-,N/A,,Clear,10,2013-07-01 15:35:00
10:55 AM,88.0,58.1,36,29.96,10.0,NNE,6.9,16.1,N/A,,Clear,20,2013-07-01 15:55:00
11:15 AM,88.9,57.0,34,29.96,10.0,North,9.2,-,N/A,,Clear,10,2013-07-01 16:15:00
11:35 AM,90.5,55.9,31,29.95,10.0,NNE,10.4,16.1,N/A,,Clear,30,2013-07-01 16:35:00
11:55 AM,91.4,56.1,30,29.95,10.0,NNW,9.2,17.3,N/A,,Clear,340,2013-07-01 16:55:00
12:15 PM,91.8,55.2,29,29.94,10.0,NW,11.5,17.3,N/A,,Clear,320,2013-07-01 17:15:00
12:35 PM,92.1,55.0,28,29.94,10.0,North,9.2,21.9,N/A,,Clear,360,2013-07-01 17:35:00
12:55 PM,92.5,54.5,28,29.94,10.0,NNE,10.4,21.9,N/A,,Clear,20,2013-07-01 17:55:00
1:15 PM,92.3,55.2,28,29.95,10.0,NNE,8.1,17.3,N/A,,Clear,20,2013-07-01 18:15:00
1:35 PM,92.8,54.1,27,29.94,10.0,NNE,8.1,19.6,N/A,,Clear,20,2013-07-01 18:35:00
1:55 PM,94.1,54.3,26,29.94,10.0,North,12.7,19.6,N/A,,Clear,350,2013-07-01 18:55:00
2:15 PM,94.1,54.9,27,29.93,10.0,NNW,15.0,23.0,N/A,,Clear,330,2013-07-01 19:15:00
2:35 PM,93.6,55.2,27,29.93,10.0,North,9.2,24.2,N/A,,Clear,360,2013-07-01 19:35:00
2:55 PM,92.5,54.7,28,29.93,10.0,North,11.5,20.7,N/A,,Clear,350,2013-07-01 19:55:00
3:15 PM,92.5,56.8,30,29.93,10.0,North,13.8,19.6,N/A,,Clear,10,2013-07-01 20:15:00
3:35 PM,93.2,57.4,30,29.92,10.0,NNW,9.2,19.6,N/A,,Clear,340,2013-07-01 20:35:00
3:55 PM,92.1,57.4,31,29.92,10.0,North,13.8,18.4,N/A,,Clear,10,2013-07-01 20:55:00
4:15 PM,92.7,56.8,30,29.92,10.0,North,13.8,20.7,N/A,,Clear,350,2013-07-01 21:15:00
4:35 PM,92.5,57.4,31,29.92,10.0,North,12.7,18.4,N/A,,Clear,350,2013-07-01 21:35:00
4:55 PM,92.5,56.5,30,29.92,10.0,NNE,9.2,19.6,N/A,,Clear,20,2013-07-01 21:55:00
5:15 PM,91.6,53.6,27,29.91,10.0,North,9.2,-,N/A,,Clear,10,2013-07-01 22:15:00
5:35 PM,91.6,55.0,29,29.92,10.0,North,5.8,16.1,N/A,,Clear,360,2013-07-01 22:35:00
5:55 PM,91.2,56.3,31,29.91,10.0,NNE,6.9,16.1,N/A,,Clear,20,2013-07-01 22:55:00
6:15 PM,90.7,56.8,32,29.91,10.0,North,9.2,-,N/A,,Clear,350,2013-07-01 23:15:00
6:35 PM,90.9,57.0,32,29.92,10.0,North,6.9,16.1,N/A,,Clear,10,2013-07-01 23:35:00
6:55 PM,90.0,57.6,33,29.92,10.0,NNE,9.2,16.1,N/A,,Clear,20,2013-07-01 23:55:00
7:15 PM,89.6,58.3,35,29.93,10.0,NE,6.9,-,N/A,,Clear,40,2013-07-02 00:15:00
7:35 PM,88.9,58.5,36,29.93,10.0,North,5.8,-,N/A,,Clear,10,2013-07-02 00:35:00
7:55 PM,87.8,58.3,37,29.93,10.0,North,6.9,-,N/A,,Clear,10,2013-07-02 00:55:00
8:15 PM,86.9,58.1,38,29.94,10.0,North,3.5,-,N/A,,Clear,350,2013-07-02 01:15:00
8:35 PM,86.7,58.8,39,29.94,10.0,NNW,4.6,-,N/A,,Clear,330,2013-07-02 01:35:00
8:55 PM,84.9,59.5,42,29.94,10.0,Calm,Calm,-,N/A,,Clear,0,2013-07-02 01:55:00
9:15 PM,85.1,58.5,40,29.94,10.0,North,3.5,-,N/A,,Clear,360,2013-07-02 02:15:00
9:35 PM,84.2,58.3,41,29.94,10.0,North,3.5,-,N/A,,Clear,360,2013-07-02 02:35:00
9:55 PM,83.8,58.3,42,29.95,10.0,North,3.5,-,N/A,,Clear,360,2013-07-02 02:55:00
10:15 PM,83.1,58.3,43,29.95,10.0,Calm,Calm,-,N/A,,Clear,0,2013-07-02 03:15:00
10:35 PM,81.1,59.2,47,29.95,10.0,Calm,Calm,-,N/A,,Clear,0,2013-07-02 03:35:00
10:55 PM,79.0,59.5,51,29.96,10.0,Calm,Calm,-,N/A,,Clear,0,2013-07-02 03:55:00
11:15 PM,77.9,59.7,53,29.97,10.0,Calm,Calm,-,N/A,,Clear,0,2013-07-02 04:15:00
11:35 PM,77.0,59.9,55,29.97,10.0,Calm,Calm,-,N/A,,Clear,0,2013-07-02 04:35:00
11:55 PM,75.6,59.9,58,29.97,10.0,Calm,Calm,-,N/A,,Clear,0,2013-07-02 04:55:00